Stündliche Wetter Labuzy

Heute, 8 Mai, Samstag

Zeit Temperatur Niederschläge Wind Luftdruck Luftfeuchtigkeit
00:00 +3°C° 0 mm 3 m/S 739 mmHg 95%
01:00 +3°C° 0 mm 3 m/S 739 mmHg 95%
02:00 +3°C° 0 mm 2 m/S 739 mmHg 95%
03:00 +2°C° 0 mm 3 m/S 740 mmHg 94%
04:00 +2°C° 0 mm 3 m/S 740 mmHg 94%
05:00 +1°C° 0 mm 3 m/S 740 mmHg 94%
06:00 +1°C° 0 mm 4 m/S 741 mmHg 90%
07:00 +2°C° 0 mm 5 m/S 741 mmHg 86%
08:00 +2°C° 0 mm 5 m/S 742 mmHg 82%
09:00 +2°C° 0 mm 5 m/S 742 mmHg 80%
10:00 +3°C° 0 mm 6 m/S 743 mmHg 78%
11:00 +3°C° 0 mm 6 m/S 743 mmHg 76%
12:00 +3°C° 0 mm 6 m/S 744 mmHg 72%
13:00 +5°C° 0 mm 5 m/S 744 mmHg 68%
14:00 +5°C° 0 mm 5 m/S 744 mmHg 64%
15:00 +6°C° 0 mm 5 m/S 745 mmHg 62%
16:00 +7°C° 0 mm 5 m/S 745 mmHg 59%
17:00 +8°C° 0 mm 5 m/S 745 mmHg 57%
18:00 +6°C° 0 mm 4 m/S 745 mmHg 65%
19:00 +5°C° 0 mm 3 m/S 746 mmHg 73%
20:00 +3°C° 0 mm 3 m/S 746 mmHg 80%
21:00 +3°C° 0 mm 3 m/S 746 mmHg 84%
22:00 +2°C° 0 mm 3 m/S 747 mmHg 87%
23:00 +1°C° 0 mm 3 m/S 747 mmHg 90%

Morgen, 9 Mai, Sonntag

Zeit Temperatur Niederschläge Wind Luftdruck Luftfeuchtigkeit
00:00 +2°C° 0 mm 2 m/S 747 mmHg 91%
01:00 +2°C° 0 mm 2 m/S 748 mmHg 91%
02:00 +1°C° 0 mm 2 m/S 748 mmHg 92%
03:00 +1°C° 0 mm 2 m/S 748 mmHg 93%
04:00 +1°C° 0 mm 2 m/S 749 mmHg 93%
05:00 +1°C° 0 mm 2 m/S 749 mmHg 94%
06:00 +3°C° 0 mm 2 m/S 750 mmHg 87%
07:00 +5°C° 0 mm 2 m/S 750 mmHg 81%
08:00 +8°C° 0 mm 1 m/S 751 mmHg 74%
09:00 +8°C° 0 mm 2 m/S 751 mmHg 67%
10:00 +9°C° 0 mm 2 m/S 751 mmHg 60%
11:00 +12°C° 0 mm 2 m/S 751 mmHg 54%
12:00 +12°C° 0 mm 2 m/S 751 mmHg 50%
13:00 +13°C° 0 mm 2 m/S 751 mmHg 47%
14:00 +13°C° 0 mm 3 m/S 751 mmHg 44%
15:00 +13°C° 0 mm 3 m/S 751 mmHg 46%
16:00 +13°C° 0 mm 3 m/S 750 mmHg 47%
17:00 +13°C° 0 mm 3 m/S 750 mmHg 49%
18:00 +12°C° 0 mm 3 m/S 751 mmHg 55%
19:00 +10°C° 0 mm 3 m/S 751 mmHg 62%
20:00 +8°C° 0 mm 3 m/S 751 mmHg 68%
21:00 +9°C° 0 mm 3 m/S 751 mmHg 67%
22:00 +9°C° 0 mm 3 m/S 751 mmHg 65%
23:00 +8°C° 0 mm 4 m/S 751 mmHg 63%

übermorgen, 10 Mai, Montag

Zeit Temperatur Niederschläge Wind Luftdruck Luftfeuchtigkeit
00:00 +8°C° 0 mm 4 m/S 751 mmHg 64%
01:00 +7°C° 0 mm 4 m/S 751 mmHg 66%
02:00 +7°C° 0 mm 4 m/S 752 mmHg 67%
03:00 +6°C° 0 mm 4 m/S 752 mmHg 70%
04:00 +6°C° 0 mm 4 m/S 752 mmHg 74%
05:00 +5°C° 0 mm 3 m/S 752 mmHg 77%
06:00 +7°C° 0 mm 4 m/S 752 mmHg 73%
07:00 +8°C° 0 mm 4 m/S 752 mmHg 70%
08:00 +11°C° 0 mm 4 m/S 752 mmHg 66%
09:00 +13°C° 0 mm 5 m/S 752 mmHg 62%
10:00 +14°C° 0 mm 5 m/S 752 mmHg 58%
11:00 +16°C° 0 mm 6 m/S 752 mmHg 54%
12:00 +17°C° 0 mm 6 m/S 752 mmHg 52%
13:00 +17°C° 0 mm 6 m/S 752 mmHg 51%
14:00 +19°C° 0 mm 6 m/S 752 mmHg 50%
15:00 +19°C° 0 mm 6 m/S 752 mmHg 53%
16:00 +19°C° 0 mm 5 m/S 751 mmHg 55%
17:00 +19°C° 0 mm 5 m/S 751 mmHg 58%
18:00 +16°C° 0 mm 5 m/S 751 mmHg 64%
19:00 +14°C° 0 mm 4 m/S 751 mmHg 69%
20:00 +12°C° 0 mm 4 m/S 751 mmHg 75%
21:00 +11°C° 0 mm 4 m/S 752 mmHg 74%
22:00 +11°C° 0 mm 4 m/S 752 mmHg 74%
23:00 +10°C° 0 mm 4 m/S 752 mmHg 73%

11 Mai, Dienstag

Zeit Temperatur Niederschläge Wind Luftdruck Luftfeuchtigkeit
00:00 +10°C° 0 mm 4 m/S 752 mmHg 74%
01:00 +8°C° 0 mm 4 m/S 752 mmHg 76%
02:00 +8°C° 0 mm 4 m/S 752 mmHg 77%
03:00 +7°C° 0 mm 4 m/S 752 mmHg 78%
04:00 +7°C° 0 mm 4 m/S 752 mmHg 78%
05:00 +6°C° 0 mm 4 m/S 752 mmHg 79%
06:00 +8°C° 0 mm 5 m/S 752 mmHg 75%
07:00 +9°C° 0 mm 6 m/S 752 mmHg 70%
08:00 +11°C° 0 mm 6 m/S 752 mmHg 66%
09:00 +13°C° 0 mm 6 m/S 752 mmHg 60%
10:00 +15°C° 0 mm 7 m/S 751 mmHg 53%
11:00 +16°C° 0 mm 7 m/S 751 mmHg 47%
12:00 +17°C° 0 mm 7 m/S 751 mmHg 46%
13:00 +18°C° 0 mm 7 m/S 751 mmHg 45%
14:00 +19°C° 0 mm 6 m/S 750 mmHg 45%
15:00 +19°C° 0 mm 6 m/S 750 mmHg 48%
16:00 +19°C° 0 mm 6 m/S 750 mmHg 51%
17:00 +19°C° 0 mm 5 m/S 749 mmHg 54%
18:00 +16°C° 0 mm 5 m/S 749 mmHg 60%
19:00 +14°C° 0 mm 4 m/S 749 mmHg 65%
20:00 +12°C° 0 mm 4 m/S 749 mmHg 71%
21:00 +11°C° 0 mm 4 m/S 749 mmHg 73%
22:00 +11°C° 0 mm 4 m/S 749 mmHg 74%
23:00 +10°C° 0 mm 4 m/S 749 mmHg 76%

12 Mai, Mittwoch

Zeit Temperatur Niederschläge Wind Luftdruck Luftfeuchtigkeit
00:00 +10°C° 0 mm 4 m/S 749 mmHg 81%
01:00 +8°C° 0 mm 4 m/S 749 mmHg 86%
02:00 +8°C° 0 mm 4 m/S 748 mmHg 91%
03:00 +9°C° 0 mm 3 m/S 748 mmHg 93%
04:00 +9°C° 0 mm 3 m/S 748 mmHg 95%
05:00 +9°C° 0 mm 3 m/S 748 mmHg 97%
06:00 +10°C° 0 mm 4 m/S 748 mmHg 91%
07:00 +12°C° 0 mm 4 m/S 748 mmHg 84%
08:00 +13°C° 0 mm 5 m/S 748 mmHg 77%
09:00 +14°C° 0 mm 5 m/S 747 mmHg 71%
10:00 +15°C° 0 mm 5 m/S 747 mmHg 66%
11:00 +17°C° 0 mm 5 m/S 746 mmHg 60%
12:00 +15°C° 0.1 mm 5 m/S 746 mmHg 69%
13:00 +14°C° 0.1 mm 5 m/S 746 mmHg 77%
14:00 +13°C° 0.1 mm 6 m/S 746 mmHg 85%
15:00 +13°C° 0 mm 6 m/S 746 mmHg 80%
16:00 +13°C° 0 mm 6 m/S 746 mmHg 75%
17:00 +13°C° 0 mm 6 m/S 746 mmHg 71%
18:00 +12°C° 0 mm 5 m/S 746 mmHg 74%
19:00 +12°C° 0 mm 5 m/S 745 mmHg 78%
20:00 +11°C° 0 mm 4 m/S 745 mmHg 82%
21:00 +10°C° 0 mm 4 m/S 745 mmHg 85%
22:00 +8°C° 0 mm 4 m/S 745 mmHg 88%
23:00 +7°C° 0 mm 4 m/S 745 mmHg 91%

13 Mai, Donnerstag

Zeit Temperatur Niederschläge Wind Luftdruck Luftfeuchtigkeit
00:00 +7°C° 0 mm 4 m/S 745 mmHg 90%
01:00 +7°C° 0 mm 4 m/S 744 mmHg 90%
02:00 +7°C° 0 mm 4 m/S 744 mmHg 89%
03:00 +8°C° 0 mm 4 m/S 744 mmHg 88%
04:00 +8°C° 0 mm 4 m/S 743 mmHg 88%
05:00 +8°C° 0 mm 4 m/S 743 mmHg 87%
06:00 +8°C° 0.1 mm 4 m/S 743 mmHg 86%
07:00 +10°C° 0.1 mm 4 m/S 742 mmHg 85%
08:00 +10°C° 0.1 mm 4 m/S 742 mmHg 84%
09:00 +10°C° 1 mm 4 m/S 742 mmHg 86%
10:00 +10°C° 1 mm 3 m/S 741 mmHg 88%
11:00 +10°C° 1 mm 3 m/S 741 mmHg 90%
12:00 +11°C° 0.3 mm 3 m/S 741 mmHg 83%
13:00 +12°C° 0.3 mm 4 m/S 741 mmHg 76%
14:00 +13°C° 0.3 mm 4 m/S 740 mmHg 70%
15:00 +13°C° 0.2 mm 5 m/S 740 mmHg 72%
16:00 +12°C° 0.2 mm 5 m/S 740 mmHg 74%
17:00 +11°C° 0.2 mm 6 m/S 740 mmHg 77%
18:00 +10°C° 0.2 mm 6 m/S 740 mmHg 82%
19:00 +9°C° 0.2 mm 5 m/S 740 mmHg 88%
20:00 +7°C° 0.2 mm 4 m/S 740 mmHg 94%
21:00 +8°C° 0.3 mm 4 m/S 740 mmHg 94%
22:00 +8°C° 0.3 mm 4 m/S 740 mmHg 95%
23:00 +8°C° 0.3 mm 4 m/S 740 mmHg 96%
Mehr zeigen

Wir brauchen deine Erlaubnis

Meteoprog und unser Service Anbieter werden persönliche Daten aufbewahren, so wie Cookies, Geräte Bezeichnung oder ähnliche Technologien von deinem Gerät und Prozess, so wie Persönliche Daten Inhalte und Werbungen, genauso wie social Media und den Verkehr zu analysieren.

  • Aufbewahrung und/oder Zugang zu deiner Geräte Informationen.

    Cookies, Geräte Bezeichnung oder andere Informationen, können aufbewahrt oder Zugang zu deinem Gerät erhalten, für den Grund, der oben angegeben wird.

  • Personalisierte Werbung und Inhalte, Messungen, Einblick in das Publikum und Produkt Entwicklung.

    Werbungen und Inhalte können personalisiert werden, basierend auf ein Profil. Mehr Daten können besser personalisierte Werbungen und Inhalte hinzufügen. Werbung und Inhalte können gezeigt und gemessen werden. Einblicke über das Publikum, welche die Werbung gesehen haben und den Inhalt, können abgeleitet werden. So wie Daten können genutzt werden, um es zu verbessern oder die Benutzer Erfahrung zu verbessern das System und die Software.

Wenn du “Ich stimme zu” klickst, erlaubst du uns, die Cookies zu benutzen die Geräte Bezeichnung, den Web oder ähnliche Technologien zu benutzen. Deine Settings, können in deinem Gerät bei deinem Browser geändert werden.

Für den bestimmten Zweck, berechtigten Interessen beruhen darauf, mehr als auf den Inhalt. Du kannst mehr darüber in unseren Privaten und Cookie Politik lesen.